Location: Macksville High School
(37.9611°N, 99.9654°W)
Time: 20:01:47
(UTC+00:00)

Cosmos 1461 - Pass Details

Date: 17 January 2021
Orbit: 502 x 662 km, 65.0° (Epoch: 26 February)

Event Time Altitude Azimuth Distance (km) Brightness Sun altitude
Rises 12:09:35 0° 196° (SSW) 2,893 6.4 -20.3°
Reaches altitude 10° 12:11:51 10° 191° (SSW) 2,012 5.7 -19.8°
Maximum altitude 12:16:18 52° 116° (ESE) 809 4.0 -19.0°
Drops below altitude 10° 12:20:54 10° 40° (NE) 2,079 6.1 -18.1°
Sets 12:23:16 0° 36° (NE) 3,000 6.9 -17.6°
